CSLAS LFLJ-EGLF

Flight info

Callsign CSLAS
Flight time N/A
Altitude 28000
Route N0180VFR MOBLO/N0257F280 IFR N853 MOLUS Z64 SAPRE L615 DJL L615 LUREN DCT VELOL DCT ELDAX
Aircraft SF50/L-BDGRSWY/LB2U2

Departure

Time 2026-05-01 14:21
Airport Courchevel Altiport (LFLJ)

Arrival

Time N/A
Airport Farnborough Airport (EGLF)
Time Latitude Longitude Altitude Speed Heading
2026-05-01 13:56 45.39597 6.63402 6593 ft 0 kts 135°
2026-05-01 14:18 45.39593 6.63403 6590 ft 1 kts 211°
2026-05-01 14:18 45.39590 6.63397 6587 ft 1 kts 256°
2026-05-01 14:18 45.39585 6.63367 6590 ft 9 kts 256°
2026-05-01 14:19 45.39563 6.63303 6590 ft 1 kts 279°
2026-05-01 14:19 45.39563 6.63302 6590 ft 1 kts 286°
2026-05-01 14:19 45.39577 6.63283 6596 ft 2 kts 347°
2026-05-01 14:19 45.39604 6.63303 6596 ft 0 kts 40°
2026-05-01 14:20 45.39639 6.63346 6594 ft 26 kts 43°
2026-05-01 14:20 45.40571 6.64507 6627 ft 115 kts 26°
2026-05-01 14:20 45.41391 6.64719 6885 ft 125 kts 354°
2026-05-01 14:21 45.42245 6.64414 7368 ft 122 kts 341°
2026-05-01 14:21 45.42990 6.63717 7560 ft 138 kts 319°
2026-05-01 14:21 45.43807 6.62769 7833 ft 156 kts 323°
2026-05-01 14:22 45.45860 6.61671 8818 ft 165 kts 360°
2026-05-01 14:22 45.46958 6.61990 9398 ft 162 kts 26°
2026-05-01 14:22 45.47859 6.62955 9952 ft 163 kts 42°
2026-05-01 14:22 45.48759 6.63969 10521 ft 166 kts 37°
2026-05-01 14:23 45.49696 6.64954 11055 ft 170 kts 38°
2026-05-01 14:23 45.50713 6.66028 11042 ft 193 kts 36°
2026-05-01 14:23 45.52006 6.66578 11349 ft 198 kts 359°
2026-05-01 14:23 45.53383 6.66344 11699 ft 201 kts 357°
2026-05-01 14:24 45.54774 6.66474 12054 ft 201 kts 11°
2026-05-01 14:24 45.56161 6.66837 12432 ft 203 kts 11°
2026-05-01 14:24 45.57547 6.67164 12866 ft 206 kts
2026-05-01 14:24 45.58969 6.67469 13293 ft 207 kts
2026-05-01 14:25 45.60405 6.67765 13659 ft 209 kts
2026-05-01 14:25 45.61848 6.68081 14053 ft 210 kts 10°
2026-05-01 14:25 45.63298 6.68403 14400 ft 211 kts
2026-05-01 14:25 45.64757 6.68729 14775 ft 213 kts
2026-05-01 14:26 45.66224 6.69041 15149 ft 214 kts
2026-05-01 14:26 45.69178 6.69686 15908 ft 215 kts 10°
2026-05-01 14:26 45.70665 6.70011 16308 ft 217 kts 11°
2026-05-01 14:27 45.72163 6.70341 16664 ft 218 kts 10°
2026-05-01 14:27 45.73667 6.70676 17047 ft 219 kts 10°
2026-05-01 14:27 45.75181 6.71004 17438 ft 220 kts 10°
2026-05-01 14:28 45.78210 6.71669 18166 ft 222 kts
2026-05-01 14:28 45.79743 6.72004 18536 ft 223 kts 10°
2026-05-01 14:28 45.81291 6.72268 18860 ft 226 kts
2026-05-01 14:28 45.82869 6.72127 19182 ft 227 kts 357°
2026-05-01 14:29 45.84450 6.72010 19532 ft 228 kts 359°
2026-05-01 14:29 45.86042 6.71918 19864 ft 229 kts 359°
2026-05-01 14:30 45.90860 6.71592 20862 ft 232 kts 358°
2026-05-01 14:30 45.92477 6.71482 21230 ft 233 kts 358°
2026-05-01 14:30 45.94096 6.71375 21626 ft 232 kts 358°
2026-05-01 14:31 45.97299 6.71158 22422 ft 231 kts 358°
2026-05-01 14:31 45.98904 6.71047 22816 ft 231 kts 358°
2026-05-01 14:31 46.00506 6.70939 23199 ft 230 kts 358°
2026-05-01 14:31 46.02104 6.70833 23597 ft 229 kts 358°
2026-05-01 14:32 46.03698 6.70725 23950 ft 229 kts 358°
2026-05-01 14:32 46.05288 6.70615 24248 ft 229 kts 358°
2026-05-01 14:32 46.06881 6.70507 24548 ft 228 kts 358°
2026-05-01 14:32 46.08469 6.70401 24845 ft 228 kts 358°
2026-05-01 14:33 46.10059 6.70294 25158 ft 228 kts 357°
2026-05-01 14:33 46.11646 6.70182 25457 ft 228 kts 357°
2026-05-01 14:33 46.13209 6.70074 25754 ft 228 kts 357°
2026-05-01 14:33 46.14794 6.69966 26049 ft 227 kts 357°
2026-05-01 14:34 46.16374 6.69859 26333 ft 227 kts 357°
2026-05-01 14:34 46.17954 6.69749 26631 ft 227 kts 357°
2026-05-01 14:34 46.19531 6.69643 26928 ft 227 kts 357°
2026-05-01 14:34 46.21110 6.69535 27237 ft 227 kts 357°
2026-05-01 14:35 46.22689 6.69424 27532 ft 227 kts 356°
2026-05-01 14:35 46.24264 6.69318 27837 ft 226 kts 357°
2026-05-01 14:35 46.25839 6.69210 28115 ft 226 kts 356°
2026-05-01 14:35 46.27403 6.69099 28265 ft 233 kts 357°
2026-05-01 14:36 46.29081 6.68987 28278 ft 244 kts 357°
2026-05-01 14:36 46.30791 6.68872 28275 ft 255 kts 357°
2026-05-01 14:36 46.32601 6.68749 28279 ft 264 kts 357°
2026-05-01 14:36 46.34464 6.68621 28277 ft 272 kts 357°
2026-05-01 14:37 46.36380 6.68491 28273 ft 278 kts 357°
2026-05-01 14:37 46.38335 6.68359 28270 ft 284 kts 357°
2026-05-01 14:37 46.40292 6.67898 28263 ft 287 kts 341°
2026-05-01 14:37 46.42099 6.66652 28267 ft 289 kts 326°
2026-05-01 14:38 46.43615 6.64729 28263 ft 291 kts 310°
2026-05-01 14:38 46.44628 6.62530 28260 ft 293 kts 295°
2026-05-01 14:38 46.45276 6.59728 28259 ft 294 kts 279°
2026-05-01 14:38 46.45582 6.56833 28268 ft 295 kts 277°
2026-05-01 14:39 46.45899 6.53881 28269 ft 298 kts 278°
2026-05-01 14:39 46.46223 6.50902 28271 ft 300 kts 277°
2026-05-01 14:39 46.46549 6.47903 28271 ft 302 kts 278°
2026-05-01 14:39 46.47200 6.44996 28260 ft 305 kts 294°
2026-05-01 14:40 46.48339 6.42380 28261 ft 309 kts 308°
2026-05-01 14:40 46.51207 6.37668 28267 ft 313 kts 310°
2026-05-01 14:41 46.54056 6.32929 28267 ft 312 kts 310°
2026-05-01 14:41 46.56928 6.28179 28266 ft 313 kts 309°
2026-05-01 14:42 46.59800 6.23407 28265 ft 313 kts 309°
2026-05-01 14:42 46.62676 6.18625 28268 ft 314 kts 309°
2026-05-01 14:43 46.65550 6.13833 28267 ft 314 kts 309°
2026-05-01 14:43 46.68414 6.09068 28268 ft 315 kts 309°
2026-05-01 14:44 46.71309 6.04272 28263 ft 315 kts 309°
2026-05-01 14:44 46.75632 5.97046 28259 ft 315 kts 309°
2026-05-01 14:45 46.79957 5.89781 28256 ft 316 kts 309°
2026-05-01 14:46 46.82835 5.84932 28250 ft 316 kts 309°
2026-05-01 14:46 46.87159 5.77635 28242 ft 317 kts 308°
2026-05-01 14:47 46.90035 5.72801 28235 ft 317 kts 309°
2026-05-01 14:48 46.94380 5.65477 28226 ft 318 kts 308°
2026-05-01 14:48 46.98737 5.58118 28223 ft 319 kts 308°
2026-05-01 14:49 47.04549 5.48265 28220 ft 320 kts 308°
2026-05-01 14:50 47.10350 5.38392 28217 ft 321 kts 308°
2026-05-01 14:51 47.14721 5.30932 28225 ft 321 kts 308°
2026-05-01 14:52 47.19092 5.23452 28222 ft 322 kts 308°
2026-05-01 14:53 47.23479 5.15928 28220 ft 323 kts 307°
2026-05-01 14:53 47.26405 5.10896 28222 ft 324 kts 307°
2026-05-01 14:54 47.29489 5.06040 28219 ft 325 kts 311°
2026-05-01 14:54 47.32611 5.01244 28223 ft 326 kts 310°
2026-05-01 14:55 47.35745 4.96423 28225 ft 326 kts 311°
2026-05-01 14:55 47.38882 4.91583 28224 ft 327 kts 310°
2026-05-01 14:56 47.42020 4.86738 28228 ft 327 kts 310°
2026-05-01 14:56 47.45165 4.81870 28228 ft 328 kts 310°
2026-05-01 14:57 47.48312 4.76990 28229 ft 328 kts 310°
2026-05-01 14:57 47.53025 4.69663 28229 ft 329 kts 310°
2026-05-01 14:58 47.55657 4.65567 28230 ft 330 kts 310°
2026-05-01 14:58 47.58821 4.60629 28228 ft 331 kts 310°
2026-05-01 14:59 47.61988 4.55678 28229 ft 331 kts 310°
2026-05-01 14:59 47.65158 4.50715 28226 ft 331 kts 310°
2026-05-01 15:00 47.69918 4.43245 28226 ft 332 kts 310°
2026-05-01 15:01 47.73097 4.38244 28219 ft 333 kts 310°
2026-05-01 15:01 47.76283 4.33222 28219 ft 334 kts 310°
2026-05-01 15:02 47.79447 4.28228 28223 ft 334 kts 310°
2026-05-01 15:02 47.82634 4.23183 28221 ft 335 kts 310°
2026-05-01 15:03 47.85827 4.18125 28226 ft 335 kts 310°
2026-05-01 15:03 47.89016 4.13055 28226 ft 335 kts 310°
2026-05-01 15:04 47.92203 4.07985 28227 ft 335 kts 310°
2026-05-01 15:04 47.95392 4.02897 28225 ft 336 kts 310°
2026-05-01 15:05 47.98561 3.97833 28224 ft 336 kts 310°
2026-05-01 15:05 48.01754 3.92720 28224 ft 337 kts 310°
2026-05-01 15:06 48.05213 3.87961 28221 ft 339 kts 317°
2026-05-01 15:06 48.08776 3.83317 28225 ft 339 kts 316°
2026-05-01 15:07 48.12336 3.78656 28224 ft 340 kts 317°
2026-05-01 15:07 48.15895 3.73997 28213 ft 340 kts 316°
2026-05-01 15:08 48.19432 3.69354 28212 ft 340 kts 317°
2026-05-01 15:08 48.22992 3.64675 28212 ft 340 kts 316°
2026-05-01 15:09 48.26552 3.59983 28212 ft 341 kts 317°
2026-05-01 15:09 48.30117 3.55279 28217 ft 341 kts 317°
2026-05-01 15:10 48.33665 3.50586 28220 ft 341 kts 317°
2026-05-01 15:10 48.39014 3.43496 28221 ft 342 kts 317°
2026-05-01 15:11 48.44359 3.36386 28220 ft 342 kts 317°
2026-05-01 15:12 48.47927 3.31630 28221 ft 342 kts 317°
2026-05-01 15:12 48.53254 3.24509 28212 ft 342 kts 317°
2026-05-01 15:14 48.62174 3.12542 28213 ft 343 kts 317°
2026-05-01 15:14 48.67494 3.05374 28206 ft 343 kts 317°
2026-05-01 15:15 48.74622 2.95745 28203 ft 344 kts 317°
2026-05-01 15:16 48.81744 2.86083 28206 ft 344 kts 316°
2026-05-01 15:18 48.90640 2.73960 28200 ft 343 kts 316°
2026-05-01 15:19 48.97656 2.64355 28194 ft 343 kts 316°
2026-05-01 15:19 49.02979 2.57040 28192 ft 344 kts 316°
2026-05-01 15:20 49.08286 2.49727 28189 ft 344 kts 316°
2026-05-01 15:21 49.11835 2.44824 28196 ft 344 kts 316°
2026-05-01 15:21 49.15380 2.39915 28194 ft 344 kts 316°
2026-05-01 15:22 49.20691 2.32544 28196 ft 343 kts 316°
2026-05-01 15:22 49.24225 2.27628 28200 ft 343 kts 316°
2026-05-01 15:23 49.27759 2.22703 28198 ft 343 kts 316°
2026-05-01 15:23 49.31287 2.17775 28195 ft 343 kts 316°
2026-05-01 15:24 49.34802 2.12855 28190 ft 342 kts 316°
2026-05-01 15:24 49.38324 2.07918 28192 ft 343 kts 316°
2026-05-01 15:25 49.41823 2.03002 28192 ft 342 kts 316°
2026-05-01 15:25 49.45337 1.98053 28193 ft 343 kts 316°
2026-05-01 15:26 49.48851 1.93096 28192 ft 343 kts 316°
2026-05-01 15:26 49.52365 1.88127 28193 ft 342 kts 316°
2026-05-01 15:27 49.55865 1.83165 28195 ft 342 kts 316°
2026-05-01 15:28 49.61108 1.75717 28200 ft 342 kts 316°
2026-05-01 15:28 49.64576 1.70778 28198 ft 341 kts 316°
2026-05-01 15:29 49.69811 1.63303 28196 ft 341 kts 315°
2026-05-01 15:30 49.76765 1.53338 28202 ft 341 kts 315°
2026-05-01 15:31 49.87157 1.38373 28208 ft 341 kts 315°
2026-05-01 15:32 49.94110 1.28380 28204 ft 341 kts 320°
2026-05-01 15:34 50.05641 1.15370 28215 ft 341 kts 323°